Cozieni, Romania

7:51 AM EEST on April 21, 2018 (GMT +0300)
Cozieni

Weather History for 15420 - February, 2010

Change the Weather History Date:

Monday, February 15, 2010

  Actual Average Record
Temperature  
Mean Temperature 33 °F -  
Max Temperature 35 °F 45 °F - ()
Min Temperature 31 °F 30 °F - ()
Degree Days  
Heating Degree Days 32    
Moisture  
Dew Point 32 °F    
Average Humidity 96    
Maximum Humidity 100    
Minimum Humidity 77    
Precipitation  
Precipitation 0.28 in 0.05 in - ()
Sea Level Pressure  
Sea Level Pressure 29.67 in    
Wind  
Wind Speed 7 mph ()    
Max Wind Speed 18 mph    
Max Gust Speed -    
Visibility 2.1 miles    
Events Fog , Rain , Snow    
T = Trace of Precipitation, MM = Missing Value Source: Averaged Metar Reports

Daily Weather History Graph

Daily Weather History Graph

Search for Another Location

Airport or City:

Astronomy

Feb. 15, 2010 Rise Set
Actual Time 7:15 AM EET 5:43 PM EET
Civil Twilight 6:46 AM EET 6:13 PM EET
Nautical Twilight 6:11 AM EET 6:47 PM EET
Astronomical Twilight 5:38 AM EET 7:21 PM EET
Moon 7:28 AM EET (2/15) 7:19 PM EET (2/15)
Length of Visible Light 11h 27m
Length of Day
10h 27m
New Moon, 2% of the Moon is Illuminated
Feb 15
New Moon
Feb 22
First Quarter
Feb 28
Full
Mar 7
Last Quarter
Mar 15
New

Hourly Weather History & Observations

Time (EET) Temp. Windchill Dew Point Humidity Pressure Visibility Wind Dir Wind Speed Gust Speed Precip Events Conditions
12:00 AM 33 °F - 29 °F 78% 29.76 in 6 mi NE 2.2 mph - -   Overcast
12:00 AM 33.8 °F 30.8 °F 32.0 °F 93% 29.74 in 2.5 mi East 3.5 mph - N/A   Partly Cloudy
12:30 AM 33.8 °F - 32.0 °F 93% 29.71 in 2.5 mi ENE 2.3 mph - N/A   Mist
1:00 AM 33 °F - 28 °F 77% 29.73 in 6 mi NE 2.2 mph - -   Mostly Cloudy
1:00 AM 33.8 °F 29.6 °F 32.0 °F 93% 29.71 in 2.5 mi East 4.6 mph - N/A   Mist
1:30 AM 33.8 °F 27.7 °F 32.0 °F 93% 29.68 in 1.9 mi East 6.9 mph - N/A   Mist
2:00 AM 33 °F - 29 °F 77% 29.70 in 6 mi ENE 4.5 mph - -   Overcast
2:00 AM 33.8 °F 27.7 °F 33.8 °F 100% 29.68 in 1.9 mi East 6.9 mph - N/A   Mostly Cloudy
2:30 AM 33.8 °F 27.7 °F 32.0 °F 93% 29.68 in 1.9 mi East 6.9 mph - N/A   Overcast
3:00 AM 33 °F - 28 °F 77% 29.68 in 6 mi NE 4.5 mph - -   Overcast
3:00 AM 33.8 °F 27.7 °F 32.0 °F 93% 29.65 in 1.9 mi ENE 6.9 mph - N/A Rain Light Rain
3:30 AM 33.8 °F 26.4 °F 32.0 °F 93% 29.62 in 1.9 mi ENE 9.2 mph - N/A Rain , Snow Light Rain
4:00 AM 33 °F - 30 °F 84% 29.64 in 6 mi NE 6.7 mph - -   Overcast
4:00 AM 33.8 °F 26.4 °F 32.0 °F 93% 29.62 in 1.9 mi East 9.2 mph - N/A Rain Light Rain
4:30 AM 32.0 °F 22.5 °F 32.0 °F 100% 29.59 in 0.9 mi ENE 12.7 mph - N/A Rain Light Rain
5:00 AM 32 °F - 31 °F 93% 29.62 in 2 mi NE 6.7 mph - - Snow Light Snow
5:00 AM 32.0 °F 22.5 °F 32.0 °F 100% 29.62 in 0.6 mi East 12.7 mph - N/A Rain Rain
5:30 AM 32.0 °F 23.0 °F 32.0 °F 100% 29.62 in 0.4 mi East 11.5 mph - N/A Fog , Snow Snow
6:00 AM 32 °F - 31 °F 97% 29.62 in 2 mi ENE 8.9 mph - - Snow Light Snow
6:00 AM 32.0 °F 23.0 °F 32.0 °F 100% 29.62 in 0.3 mi ENE 11.5 mph - N/A Fog , Snow Snow
6:30 AM 32.0 °F 23.0 °F 32.0 °F 100% 29.59 in 0.3 mi ENE 11.5 mph - N/A Fog , Snow Snow
7:00 AM 32 °F - 32 °F 98% 29.60 in 2 mi NE 8.9 mph - - Snow Light Snow
7:00 AM 32.0 °F 21.6 °F 32.0 °F 100% 29.56 in 0.4 mi ENE 15.0 mph - N/A Fog , Snow Snow
7:30 AM 32.0 °F 21.6 °F 32.0 °F 100% 29.56 in 1.2 mi ENE 15.0 mph - N/A Snow Light Snow
8:00 AM 32 °F - 32 °F 98% 29.58 in 2 mi NE 11.2 mph - - Snow Light Snow
8:00 AM 32.0 °F 20.5 °F 32.0 °F 100% 29.56 in 1.2 mi ENE 18.4 mph - N/A Snow Light Snow
8:30 AM 32.0 °F 21.2 °F 32.0 °F 100% 29.56 in 0.6 mi ENE 16.1 mph - N/A Snow Snow
9:00 AM 32 °F - 32 °F 99% 29.58 in - NE 8.9 mph - -  
9:00 AM 32.0 °F 20.8 °F 32.0 °F 100% 29.56 in 0.9 mi ENE 17.3 mph - N/A Snow Light Snow
9:30 AM 32.0 °F 21.2 °F 32.0 °F 100% 29.56 in 0.6 mi ENE 16.1 mph - N/A Snow Light Snow
10:00 AM 32 °F - 32 °F 99% 29.57 in - NE 8.9 mph - -  
10:00 AM 32.0 °F 21.6 °F 32.0 °F 100% 29.56 in 0.7 mi ENE 15.0 mph - N/A Snow Snow
10:30 AM 32.0 °F 21.6 °F 32.0 °F 100% 29.59 in 0.9 mi ENE 15.0 mph - N/A Snow Snow
11:00 AM 32 °F - 32 °F 100% 29.59 in - NNE 8.9 mph - -  
11:00 AM 32.0 °F 22.1 °F 32.0 °F 100% 29.59 in 0.7 mi ENE 13.8 mph - N/A Snow Snow
11:30 AM 32.0 °F 22.5 °F 32.0 °F 100% 29.59 in 0.7 mi ENE 12.7 mph - N/A Snow Snow
12:00 PM 32 °F - 32 °F 100% 29.62 in - NNE 11.2 mph - -  
12:00 PM 32.0 °F 22.1 °F 32.0 °F 100% 29.59 in 0.6 mi ENE 13.8 mph - N/A Snow Snow
12:30 PM 32.0 °F 22.1 °F 32.0 °F 100% 29.59 in 0.6 mi NE 13.8 mph - N/A Snow Snow
1:00 PM 33 °F - 33 °F 100% 29.62 in 1 mi NNE 6.7 mph - - Snow Snow
1:00 PM 33.8 °F 26.4 °F 32.0 °F 93% 29.62 in 0.9 mi NE 9.2 mph - N/A Snow Snow
1:30 PM 33.8 °F 27.7 °F 33.8 °F 100% 29.62 in 1.2 mi NE 6.9 mph - N/A Snow Light Snow
2:00 PM 34 °F - 33 °F 96% 29.63 in 1 mi NNE 6.7 mph - - Snow Light Snow
2:00 PM 33.8 °F 26.4 °F 33.8 °F 100% 29.62 in 1.9 mi ENE 9.2 mph - N/A Snow Light Snow
2:30 PM 33.8 °F 27.7 °F 33.8 °F 100% 29.62 in 1.9 mi ENE 6.9 mph - N/A Snow Light Snow
3:00 PM 35 °F - 33 °F 92% 29.65 in 1 mi North 4.5 mph - - Snow Light Snow
3:00 PM 33.8 °F 30.8 °F 33.8 °F 100% 29.65 in 2.5 mi NE 3.5 mph - N/A Snow Light Snow
3:30 PM 33.8 °F 29.6 °F 33.8 °F 100% 29.65 in 1.9 mi NW 4.6 mph - N/A Snow Light Snow
4:00 PM 33 °F - 32 °F 93% 29.67 in 1 mi West 4.5 mph - - Snow Light Snow
4:00 PM 33.8 °F 29.6 °F 33.8 °F 100% 29.68 in - West 4.6 mph - N/A   Mostly Cloudy
4:30 PM 33.8 °F 27.0 °F 32.0 °F 93% 29.68 in 0.9 mi West 8.1 mph - N/A Snow Light Snow
5:00 PM 33 °F - 32 °F 94% 29.70 in 1 mi WSW 6.7 mph - - Snow Light Snow
5:00 PM 33.8 °F 26.4 °F 32.0 °F 93% 29.71 in 1.2 mi West 9.2 mph - N/A Snow Light Snow
5:30 PM 33.8 °F 26.4 °F 32.0 °F 93% 29.71 in 1.6 mi West 9.2 mph - N/A Snow Light Snow
6:00 PM 33 °F - 33 °F 97% 29.73 in 1 mi West 6.7 mph - - Snow Light Snow
6:00 PM 33.8 °F 26.4 °F 32.0 °F 93% 29.71 in 1.6 mi West 9.2 mph - N/A Snow Light Snow
6:30 PM 33.8 °F 25.8 °F 32.0 °F 93% 29.74 in 1.9 mi West 10.4 mph - N/A Snow Light Snow
7:00 PM 33 °F - 33 °F 97% 29.76 in 2 mi WSW 6.7 mph - - Snow Light Snow
7:00 PM 33.8 °F 25.8 °F 32.0 °F 93% 29.74 in 1.9 mi West 10.4 mph - N/A Snow Light Snow
7:30 PM 33.8 °F 27.0 °F 32.0 °F 93% 29.77 in 2.5 mi West 8.1 mph - N/A Snow Light Snow
8:00 PM 33 °F - 33 °F 97% 29.77 in 6 mi SW 6.7 mph - - Snow Light Snow
8:00 PM 33.8 °F 28.6 °F 33.8 °F 100% 29.77 in 3.1 mi West 5.8 mph - N/A   Mostly Cloudy
8:30 PM 33.8 °F 28.6 °F 33.8 °F 100% 29.77 in 4.3 mi West 5.8 mph - N/A Rain Light Rain
9:00 PM 33 °F - 33 °F 97% 29.77 in 6 mi SW 4.5 mph - - Snow Light Snow
9:00 PM 33.8 °F 27.0 °F 33.8 °F 100% 29.77 in 4.3 mi WSW 8.1 mph - N/A   Overcast
9:30 PM 33.8 °F 25.8 °F 32.0 °F 93% 29.77 in 1.2 mi West 10.4 mph - N/A   Mostly Cloudy
10:00 PM 33 °F - 32 °F 96% 29.79 in 6 mi SW 6.7 mph - -   Overcast
10:00 PM 33.8 °F 27.0 °F 32.0 °F 93% 29.77 in 0.9 mi West 8.1 mph - N/A   Overcast
10:30 PM 33.8 °F 26.4 °F 32.0 °F 93% 29.80 in 0.9 mi West 9.2 mph - N/A   Overcast
11:00 PM 33 °F - 33 °F 97% 29.80 in 6 mi WSW 8.9 mph - -   Partly Cloudy
11:00 PM 33.8 °F 25.8 °F 32.0 °F 93% 29.80 in 1.9 mi West 10.4 mph - N/A   Mostly Cloudy
11:30 PM 32.0 °F 23.6 °F 32.0 °F 100% 29.80 in 2.5 mi West 10.4 mph - N/A   Mostly Cloudy